N2KC CYKF-KCLE

Flight info

Callsign N2KC
Flight time 0h 47m
Altitude 22000
Route DCT ERI DCT TRYBE TRYBE4
Aircraft P180/L-SBDFGM3RWXY/LB1

Departure

Time 2026-05-09 03:17
Airport Region of Waterloo International Airport (CYKF)

Arrival

Time 2026-05-09 04:04
Airport Cleveland Hopkins International Airport (KCLE)
Time Latitude Longitude Altitude Speed Heading
2026-05-09 02:50 43.45509 -80.38334 1030 ft 0 kts 218°
2026-05-09 03:04 43.45509 -80.38335 1030 ft 1 kts 227°
2026-05-09 03:04 43.45511 -80.38343 1030 ft 2 kts 310°
2026-05-09 03:05 43.45522 -80.38338 1030 ft 0 kts 38°
2026-05-09 03:07 43.45530 -80.38328 1030 ft 4 kts 40°
2026-05-09 03:07 43.45533 -80.38325 1030 ft 0 kts 40°
2026-05-09 03:08 43.45538 -80.38320 1030 ft 3 kts 40°
2026-05-09 03:09 43.45573 -80.38290 1030 ft 9 kts 26°
2026-05-09 03:09 43.45638 -80.38317 1030 ft 14 kts 305°
2026-05-09 03:09 43.45709 -80.38440 1030 ft 19 kts 309°
2026-05-09 03:09 43.45780 -80.38523 1030 ft 9 kts 46°
2026-05-09 03:10 43.45813 -80.38427 1030 ft 14 kts 60°
2026-05-09 03:10 43.45866 -80.38276 1030 ft 21 kts 65°
2026-05-09 03:10 43.45937 -80.38067 1030 ft 27 kts 65°
2026-05-09 03:10 43.46024 -80.37811 1030 ft 32 kts 65°
2026-05-09 03:11 43.46120 -80.37523 1030 ft 34 kts 65°
2026-05-09 03:11 43.46220 -80.37232 1030 ft 34 kts 64°
2026-05-09 03:11 43.46316 -80.36945 1030 ft 33 kts 65°
2026-05-09 03:11 43.46380 -80.36750 1031 ft 18 kts 67°
2026-05-09 03:12 43.46429 -80.36601 1031 ft 13 kts 65°
2026-05-09 03:12 43.46474 -80.36574 1031 ft 0 kts 14°
2026-05-09 03:13 43.46501 -80.36565 1031 ft 0 kts 16°
2026-05-09 03:14 43.46507 -80.36562 1031 ft 4 kts 14°
2026-05-09 03:14 43.46559 -80.36568 1031 ft 11 kts 341°
2026-05-09 03:15 43.46591 -80.36620 1030 ft 5 kts 246°
2026-05-09 03:15 43.46591 -80.36621 1030 ft 0 kts 246°
2026-05-09 03:15 43.46590 -80.36624 1030 ft 0 kts 246°
2026-05-09 03:16 43.46589 -80.36627 1030 ft 5 kts 246°
2026-05-09 03:17 43.46424 -80.37117 1029 ft 100 kts 245°
2026-05-09 03:17 43.46069 -80.38218 1365 ft 137 kts 246°
2026-05-09 03:17 43.45669 -80.39528 2107 ft 162 kts 244°
2026-05-09 03:17 43.45215 -80.41057 2827 ft 180 kts 245°
2026-05-09 03:18 43.44732 -80.42694 3599 ft 189 kts 245°
2026-05-09 03:18 43.44170 -80.44521 3616 ft 226 kts 245°
2026-05-09 03:18 43.43538 -80.46570 3818 ft 231 kts 245°
2026-05-09 03:18 43.42770 -80.48502 3987 ft 234 kts 229°
2026-05-09 03:19 43.41373 -80.49669 3986 ft 243 kts 196°
2026-05-09 03:19 43.39670 -80.49647 3989 ft 250 kts 169°
2026-05-09 03:19 43.38041 -80.48754 3987 ft 255 kts 154°
2026-05-09 03:19 43.36448 -80.47689 3988 ft 254 kts 165°
2026-05-09 03:20 43.34704 -80.47419 4069 ft 250 kts 181°
2026-05-09 03:20 43.33073 -80.47447 4794 ft 225 kts 182°
2026-05-09 03:20 43.31593 -80.47389 5813 ft 200 kts 181°
2026-05-09 03:20 43.30293 -80.47291 6963 ft 176 kts 181°
2026-05-09 03:21 43.29078 -80.47192 7743 ft 175 kts 191°
2026-05-09 03:21 43.28015 -80.47845 8432 ft 167 kts 220°
2026-05-09 03:21 43.27047 -80.48728 9174 ft 167 kts 219°
2026-05-09 03:21 43.26030 -80.49535 9881 ft 170 kts 217°
2026-05-09 03:22 43.24979 -80.50293 10490 ft 172 kts 216°
2026-05-09 03:22 43.23917 -80.51059 11086 ft 173 kts 216°
2026-05-09 03:22 43.22852 -80.51823 11695 ft 172 kts 216°
2026-05-09 03:22 43.21784 -80.52592 12259 ft 175 kts 216°
2026-05-09 03:23 43.20704 -80.53375 12810 ft 176 kts 216°
2026-05-09 03:23 43.19613 -80.54155 13382 ft 177 kts 216°
2026-05-09 03:23 43.18519 -80.54942 13906 ft 178 kts 216°
2026-05-09 03:23 43.17419 -80.55735 14372 ft 179 kts 216°
2026-05-09 03:24 43.16309 -80.56533 14829 ft 180 kts 216°
2026-05-09 03:24 43.15197 -80.57333 15277 ft 181 kts 217°
2026-05-09 03:24 43.14075 -80.58140 15714 ft 183 kts 217°
2026-05-09 03:24 43.12946 -80.58951 16145 ft 184 kts 217°
2026-05-09 03:25 43.11807 -80.59770 16570 ft 185 kts 217°
2026-05-09 03:25 43.10679 -80.60577 16976 ft 186 kts 217°
2026-05-09 03:25 43.09531 -80.61404 17383 ft 187 kts 217°
2026-05-09 03:25 43.08376 -80.62231 17780 ft 188 kts 217°
2026-05-09 03:26 43.07210 -80.63067 18168 ft 189 kts 217°
2026-05-09 03:26 43.06039 -80.63907 18497 ft 190 kts 217°
2026-05-09 03:26 43.04865 -80.64746 18831 ft 191 kts 218°
2026-05-09 03:26 43.03685 -80.65593 19134 ft 190 kts 218°
2026-05-09 03:27 43.02557 -80.66384 19178 ft 169 kts 218°
2026-05-09 03:27 43.01582 -80.67069 19175 ft 148 kts 221°
2026-05-09 03:27 43.00709 -80.67705 19164 ft 137 kts 222°
2026-05-09 03:27 42.99898 -80.68290 19150 ft 131 kts 222°
2026-05-09 03:28 42.99106 -80.68861 19133 ft 127 kts 223°
2026-05-09 03:28 42.98333 -80.69414 19122 ft 125 kts 223°
2026-05-09 03:28 42.97545 -80.69988 19123 ft 130 kts 222°
2026-05-09 03:28 42.96739 -80.70564 19121 ft 131 kts 222°
2026-05-09 03:29 42.95930 -80.71148 19129 ft 132 kts 222°
2026-05-09 03:29 42.95117 -80.71726 19131 ft 132 kts 222°
2026-05-09 03:29 42.94303 -80.72307 19131 ft 132 kts 222°
2026-05-09 03:29 42.93487 -80.72887 19135 ft 132 kts 222°
2026-05-09 03:30 42.92661 -80.73484 19123 ft 142 kts 222°
2026-05-09 03:30 42.91706 -80.74191 19128 ft 171 kts 219°
2026-05-09 03:30 42.90574 -80.74992 19141 ft 194 kts 218°
2026-05-09 03:30 42.89310 -80.75886 19139 ft 214 kts 217°
2026-05-09 03:31 42.87937 -80.76856 19131 ft 230 kts 216°
2026-05-09 03:31 42.86525 -80.77848 19721 ft 217 kts 217°
2026-05-09 03:31 42.85214 -80.78757 20254 ft 210 kts 218°
2026-05-09 03:31 42.83917 -80.79702 20585 ft 213 kts 218°
2026-05-09 03:32 42.82598 -80.80644 20965 ft 214 kts 218°
2026-05-09 03:32 42.81273 -80.81582 21340 ft 215 kts 218°
2026-05-09 03:32 42.79952 -80.82517 21720 ft 217 kts 218°
2026-05-09 03:32 42.78598 -80.83483 21884 ft 227 kts 218°
2026-05-09 03:33 42.77155 -80.84521 21887 ft 241 kts 218°
2026-05-09 03:33 42.75624 -80.85603 21894 ft 254 kts 217°
2026-05-09 03:33 42.74027 -80.86729 21897 ft 263 kts 217°
2026-05-09 03:33 42.72377 -80.87894 21824 ft 273 kts 216°
2026-05-09 03:34 42.70743 -80.89308 21374 ft 282 kts 228°
2026-05-09 03:34 42.69474 -80.91375 20923 ft 289 kts 240°
2026-05-09 03:34 42.68329 -80.93675 20490 ft 298 kts 240°
2026-05-09 03:34 42.67109 -80.95998 20069 ft 306 kts 238°
2026-05-09 03:35 42.65852 -80.98342 19872 ft 304 kts 238°
2026-05-09 03:35 42.64649 -81.00655 19881 ft 297 kts 239°
2026-05-09 03:35 42.63468 -81.02938 19877 ft 294 kts 239°
2026-05-09 03:35 42.62275 -81.05181 19886 ft 292 kts 238°
2026-05-09 03:36 42.61118 -81.07400 19870 ft 291 kts 239°
2026-05-09 03:36 42.59947 -81.09671 19869 ft 289 kts 239°
2026-05-09 03:36 42.58792 -81.11863 19868 ft 289 kts 239°
2026-05-09 03:36 42.57624 -81.14077 19868 ft 288 kts 239°
2026-05-09 03:37 42.56471 -81.16290 19868 ft 287 kts 239°
2026-05-09 03:37 42.55313 -81.18503 19867 ft 287 kts 239°
2026-05-09 03:37 42.54149 -81.20702 19867 ft 287 kts 239°
2026-05-09 03:37 42.52996 -81.22904 19864 ft 286 kts 239°
2026-05-09 03:38 42.51843 -81.25106 19862 ft 286 kts 239°
2026-05-09 03:38 42.50681 -81.27301 19866 ft 286 kts 239°
2026-05-09 03:38 42.49524 -81.29497 19872 ft 286 kts 239°
2026-05-09 03:38 42.48373 -81.31692 19867 ft 286 kts 239°
2026-05-09 03:39 42.47212 -81.33884 19875 ft 286 kts 239°
2026-05-09 03:39 42.46053 -81.36078 19871 ft 286 kts 239°
2026-05-09 03:39 42.44901 -81.38267 19862 ft 286 kts 239°
2026-05-09 03:39 42.43740 -81.40460 19869 ft 286 kts 239°
2026-05-09 03:40 42.42578 -81.42649 19869 ft 286 kts 239°
2026-05-09 03:40 42.41420 -81.44845 19864 ft 286 kts 239°
2026-05-09 03:40 42.40262 -81.47031 19874 ft 286 kts 239°
2026-05-09 03:40 42.39111 -81.49192 19876 ft 286 kts 239°
2026-05-09 03:41 42.37955 -81.51379 19866 ft 286 kts 239°
2026-05-09 03:41 42.36795 -81.53568 19872 ft 286 kts 239°
2026-05-09 03:41 42.35630 -81.55750 19865 ft 286 kts 239°
2026-05-09 03:41 42.34469 -81.57935 19859 ft 286 kts 239°
2026-05-09 03:42 42.33314 -81.60115 19857 ft 286 kts 239°
2026-05-09 03:42 42.32145 -81.62301 19858 ft 286 kts 238°
2026-05-09 03:42 42.30981 -81.64482 19861 ft 286 kts 239°
2026-05-09 03:42 42.29823 -81.66664 19858 ft 285 kts 239°
2026-05-09 03:43 42.28661 -81.68837 19858 ft 285 kts 238°
2026-05-09 03:43 42.27498 -81.71011 19852 ft 285 kts 239°
2026-05-09 03:43 42.26338 -81.73190 19827 ft 286 kts 239°
2026-05-09 03:43 42.25161 -81.75388 19609 ft 293 kts 238°
2026-05-09 03:44 42.23952 -81.77649 19317 ft 299 kts 238°
2026-05-09 03:44 42.22724 -81.79947 19002 ft 305 kts 238°
2026-05-09 03:44 42.21468 -81.82282 18678 ft 309 kts 238°
2026-05-09 03:44 42.20218 -81.84606 18359 ft 311 kts 238°
2026-05-09 03:45 42.18933 -81.87010 18015 ft 313 kts 238°
2026-05-09 03:45 42.17668 -81.89361 17681 ft 313 kts 237°
2026-05-09 03:45 42.16395 -81.91715 17361 ft 298 kts 237°
2026-05-09 03:45 42.15329 -81.93661 17093 ft 219 kts 238°
2026-05-09 03:46 42.14530 -81.95146 16896 ft 178 kts 239°
2026-05-09 03:46 42.13852 -81.96424 16724 ft 160 kts 240°
2026-05-09 03:46 42.13221 -81.97609 16562 ft 152 kts 240°
2026-05-09 03:46 42.12607 -81.98750 16389 ft 148 kts 239°
2026-05-09 03:47 42.12007 -81.99869 16254 ft 147 kts 239°
2026-05-09 03:47 42.11407 -82.00980 16107 ft 147 kts 239°
2026-05-09 03:47 42.10807 -82.02096 15953 ft 147 kts 239°
2026-05-09 03:47 42.10205 -82.03208 15795 ft 148 kts 239°
2026-05-09 03:48 42.09600 -82.04329 15646 ft 148 kts 239°
2026-05-09 03:48 42.08983 -82.05476 15484 ft 160 kts 239°
2026-05-09 03:48 42.08263 -82.06825 15301 ft 200 kts 238°
2026-05-09 03:48 42.07373 -82.08470 15069 ft 233 kts 237°
2026-05-09 03:49 42.06366 -82.10321 14815 ft 257 kts 237°
2026-05-09 03:49 42.05275 -82.12328 14536 ft 274 kts 236°
2026-05-09 03:49 42.04125 -82.14449 14246 ft 286 kts 236°
2026-05-09 03:49 42.02884 -82.16592 13928 ft 296 kts 230°
2026-05-09 03:50 42.01174 -82.18216 13603 ft 308 kts 211°
2026-05-09 03:50 41.99126 -82.19188 13256 ft 318 kts 197°
2026-05-09 03:50 41.96903 -82.19487 12935 ft 322 kts 189°
2026-05-09 03:50 41.94671 -82.19759 12601 ft 322 kts 192°
2026-05-09 03:51 41.93206 -82.20031 12359 ft 321 kts 193°
2026-05-09 03:51 41.90995 -82.20468 12041 ft 321 kts 192°
2026-05-09 03:51 41.88764 -82.20758 11702 ft 324 kts 186°
2026-05-09 03:51 41.86523 -82.20194 11347 ft 335 kts 164°
2026-05-09 03:52 41.84474 -82.18660 11009 ft 342 kts 147°
2026-05-09 03:52 41.82874 -82.16271 10655 ft 349 kts 127°
2026-05-09 03:52 41.81648 -82.13448 10311 ft 349 kts 122°
2026-05-09 03:52 41.80436 -82.10640 9953 ft 348 kts 124°
2026-05-09 03:53 41.79131 -82.07897 9578 ft 347 kts 127°
2026-05-09 03:53 41.77832 -82.05194 9210 ft 341 kts 126°
2026-05-09 03:53 41.76606 -82.02512 8858 ft 335 kts 125°
2026-05-09 03:53 41.75417 -81.99960 8568 ft 294 kts 126°
2026-05-09 03:54 41.74487 -81.97939 8356 ft 226 kts 127°
2026-05-09 03:54 41.73697 -81.96251 8109 ft 206 kts 128°
2026-05-09 03:54 41.72952 -81.94679 7862 ft 200 kts 128°
2026-05-09 03:54 41.72219 -81.93108 7607 ft 198 kts 128°
2026-05-09 03:55 41.71494 -81.91544 7353 ft 198 kts 128°
2026-05-09 03:55 41.70765 -81.89980 7106 ft 197 kts 128°
2026-05-09 03:55 41.70057 -81.88454 7093 ft 188 kts 128°
2026-05-09 03:55 41.69378 -81.86977 7093 ft 185 kts 129°
2026-05-09 03:56 41.68692 -81.85526 7067 ft 188 kts 129°
2026-05-09 03:56 41.67911 -81.83901 6817 ft 234 kts 128°
2026-05-09 03:56 41.66958 -81.81878 6486 ft 276 kts 126°
2026-05-09 03:56 41.65917 -81.79594 6095 ft 298 kts 125°
2026-05-09 03:57 41.64825 -81.77219 5690 ft 292 kts 126°
2026-05-09 03:57 41.63865 -81.75142 5353 ft 225 kts 126°
2026-05-09 03:57 41.63141 -81.73584 5090 ft 178 kts 129°
2026-05-09 03:57 41.62363 -81.72493 4885 ft 148 kts 158°
2026-05-09 03:58 41.61543 -81.71995 4871 ft 114 kts 176°
2026-05-09 03:58 41.60817 -81.71826 4880 ft 115 kts 187°
2026-05-09 03:58 41.59902 -81.71639 4886 ft 147 kts 178°
2026-05-09 03:58 41.58860 -81.71313 4894 ft 159 kts 176°
2026-05-09 03:59 41.57735 -81.70995 4717 ft 170 kts 177°
2026-05-09 03:59 41.56549 -81.70667 4476 ft 177 kts 176°
2026-05-09 03:59 41.55385 -81.70331 4247 ft 158 kts 176°
2026-05-09 03:59 41.54371 -81.70030 4044 ft 142 kts 179°
2026-05-09 04:00 41.53446 -81.69991 3857 ft 126 kts 200°
2026-05-09 04:00 41.52647 -81.70353 3697 ft 117 kts 215°
2026-05-09 04:00 41.51970 -81.70905 3544 ft 112 kts 220°
2026-05-09 04:00 41.51297 -81.71428 3396 ft 111 kts 218°
2026-05-09 04:01 41.50620 -81.71953 3256 ft 124 kts 218°
2026-05-09 04:01 41.49776 -81.72592 3063 ft 150 kts 216°
2026-05-09 04:01 41.48871 -81.73321 2856 ft 155 kts 221°
2026-05-09 04:01 41.48168 -81.74382 2651 ft 152 kts 236°
2026-05-09 04:02 41.47504 -81.75472 2446 ft 150 kts 232°
2026-05-09 04:02 41.46817 -81.76518 2243 ft 149 kts 231°
2026-05-09 04:02 41.46147 -81.77569 2038 ft 148 kts 231°
2026-05-09 04:02 41.45484 -81.78608 1878 ft 146 kts 232°
2026-05-09 04:03 41.44838 -81.79628 1826 ft 145 kts 230°
2026-05-09 04:03 41.44190 -81.80675 1614 ft 143 kts 231°
2026-05-09 04:03 41.43564 -81.81676 1415 ft 140 kts 229°
2026-05-09 04:03 41.42990 -81.82667 1184 ft 128 kts 229°
2026-05-09 04:04 41.42390 -81.83539 1076 ft 131 kts 232°
2026-05-09 04:04 41.41843 -81.84447 849 ft 113 kts 232°
2026-05-09 04:04 41.41395 -81.85157 828 ft 83 kts 232°
2026-05-09 04:04 41.41146 -81.85450 798 ft 37 kts 118°